Regional Weather Roundup
Issued by NWS

Home | Current Version | Previous Version | Text Only | Print | Product List | Glossary Off
Versions: 1 2 3 4 5 6 7 8 9 10 11 12 13 14 15 16 17 18 19 20 21 22 23 24 25 26 27 28 29 30 31 32 33 34 35 36 37 38 39 40 41 42 43 44 45 46 47 48 49 50

790
ASUS43 KMKX 031400
RWRWI

WISCONSIN REGIONAL WEATHER ROUNDUP
NATIONAL WEATHER SERVICE MILWAUKEE/SULLIVAN WI
900 AM CDT TUE MAY 03 2016

NOTE: "FAIR" INDICATES FEW OR NO CLOUDS BELOW 12,000 FEET WITH NO
SIGNIFICANT WEATHER AND/OR OBSTRUCTIONS TO VISIBILITY.

WIZ001-002-006>008-014>016-023>028-031500-
NORTHWEST WISCONSIN

CITY           SKY/WX    TMP DP  RH WIND       PRES   REMARKS
SUPERIOR ARPT  CLOUDY    55  37  50 W9        29.79F
ASHLAND        CLOUDY    56  37  49 W12       29.78F
HAYWARD        CLOUDY    55  36  48 W6        29.84F
SIREN          MOSUNNY   56  35  46 W12       29.87F
CUMBERLAND     SUNNY     54  37  54 W9        29.87F
RICE LAKE      SUNNY     55  38  53 W8        29.89F
CHETEK         SUNNY     55  41  58 S3        29.88F
LADYSMITH      MOSUNNY   53  40  61 SW7       29.88F
EAU CLAIRE     NOT AVBL
MENOMONIE      SUNNY     56  43  62 SW8       29.90F
NEW RICHMOND   SUNNY     55  40  58 SW8       29.90F
OSCEOLA        SUNNY     56  41  58 W8        29.93S
$$

WIZ003>005-009-010-017-018-031500-
NORTH CENTRAL WISCONSIN

CITY           SKY/WX    TMP DP  RH WIND       PRES   REMARKS
MANITOWISH WTR CLOUDY    51  34  53 SW9       29.80F
ARBOR VITAE    CLOUDY    57  35  44 W8G16     29.81F
WOODRUFF       CLOUDY    57  35  44 W8G16     29.81F
RHINELANDER    CLOUDY    54  34  46 W12       29.84F
EAGLE RIVER    CLOUDY    51  32  49 W9        29.81F
LAND O LAKES   CLOUDY    54  32  43 W7        29.80F
PHILLIPS       MOSUNNY   52  36  54 SW8       29.83F
TOMAHAWK       MOSUNNY   56  35  44 W10G16    29.85F
MEDFORD        SUNNY     52  38  60 W10       29.88F
MERRILL        SUNNY     55  37  50 W10       29.87F
$$

WIZ029-030-035-036-043>047-031500-
CENTRAL WISCONSIN

CITY           SKY/WX    TMP DP  RH WIND       PRES   REMARKS
WAUSAU         SUNNY     59  38  45 W12       29.86F
MOSINEE        SUNNY     57  37  47 W14       29.89F
MARSHFIELD     SUNNY     57  39  51 W10       29.89F
STEVENS POINT  SUNNY     54  37  52 W7        29.90F
WAUPACA        SUNNY     59  37  44 W6        29.90S
WAUTOMA        SUNNY     60  38  43 W13       29.91F
WISC RAPIDS    SUNNY     58  37  45 W8        29.92F
CAMP DOUGLAS   NOT AVBL
$$

WIZ011>013-019>022-031-037>040-048>050-031500-
NORTHEAST WISCONSIN

CITY           SKY/WX    TMP DP  RH WIND       PRES   REMARKS
ANTIGO         SUNNY     54  35  49 W7G16     29.86F
SHAWANO        SUNNY     58  37  44 W8        29.87F
OCONTO         SUNNY     58  38  47 W8        29.84F
STURGEON BAY   MOSUNNY   55  36  47 W10       29.87S
GREEN BAY      SUNNY     59  39  47 W10       29.87F
MANITOWOC      NOT AVBL
APPLETON       MOSUNNY   55  37  50 W12       29.87F
CLINTONVILLE   SUNNY     55  36  47 W9        29.87F
OSHKOSH        SUNNY     58  39  49 W9        29.89F
$$

WIZ032>034-041-042-053>061-031500-
SOUTHWEST WISCONSIN

CITY           SKY/WX    TMP DP  RH WIND       PRES   REMARKS
LA CROSSE      SUNNY     57  41  55 S8        29.94F
SPARTA         SUNNY     53  41  65 SW6       29.95S
VIROQUA        SUNNY     53  41  62 W8        29.96S
BOSCOBEL       SUNNY     57  43  59 SW6       29.97F
PRAIRIE DU CHI SUNNY     55  41  58 W3        29.98F
PLATTEVILLE    SUNNY     53  45  74 W9        29.98F
$$

WIZ056-057-062-063-064-067-068-031500-
SOUTH CENTRAL WISCONSIN

CITY           SKY/WX    TMP DP  RH WIND       PRES   REMARKS
REEDSBURG      SUNNY     55  42  61 W8        29.94F
BARABOO/DELLS  SUNNY     54  39  56 W8        29.94F
LONE ROCK      NOT AVBL
MINERAL POINT  SUNNY     55  45  67 W10       29.97S
MADISON        MOSUNNY   57  41  55 W9        29.94F
MIDDLETON      SUNNY     55  41  60 W13       29.95F
WATERTOWN      SUNNY     53  42  64 W7        29.94S
MONROE         SUNNY     52  39  62 W14       29.96F
JANESVILLE     MOSUNNY   55  43  62 W6        29.95F
$$

WIZ051-052-058>065-066-070>072-031500-
SOUTHEAST WISCONSIN

CITY           SKY/WX    TMP DP  RH WIND       PRES   REMARKS
MILWAUKEE      MOSUNNY   57  38  48 SW8       29.94S
WAUKESHA       SUNNY     55  37  50 W7        29.95F
MILWAUKEE/TIMM SUNNY     55  36  47 W8        29.94F
RACINE         MOSUNNY   56  38  50 W7        29.95F
BURLINGTON     SUNNY     54  40  59 SW3       29.95S
KENOSHA        MOSUNNY   56  42  59 W8        29.94F
FOND DU LAC    SUNNY     59  42  53 W8        29.91F
SHEBOYGAN      SUNNY     59  40  49 W9        29.90F
WEST BEND      SUNNY     55  37  50 W9        29.92F
JUNEAU         SUNNY     51  41  68 W7        29.94F
$$

LSZ147-162-031500-
LAKE SUPERIOR

STATION/POSITION TIME  TEMP    WIND        PRES    WAVE
                       AIR SEA DIR/SP/G            HT/PER
                 (UTC) (F)     (DEG/KT/KT) (MB)    (FT/S)
W MID LAKE BUOY  1250   41 37  230/ 12/ 14 1006.7F   1/ 3
DEVILS ISLAND    1300   49     230/ 22/ 25 1007.2F
SAXON HARBOR     1300   56     210/ 10/ 15 1007.8
$$

LMZ867-665-643>646-031500-
LAKE MICHIGAN

STATION/POSITION TIME  TEMP    WIND        PRES    WAVE
                       AIR SEA DIR/SP/G            HT/PER
                 (UTC) (F)     (DEG/KT/KT) (MB)    (FT/S)
CHAMBERS ISLAND  1300   49     200/  5/ 11 1010.8F
N MID LAKE BUOY  1250   41 38  200/ 12/ 12 1010.5F   1/ 3
NORTHPORT PIER   1300   52     220/  3/  6 1010.5F
ALGOMA LAKESHORE 1315          280/  9/ 11   N/A
KEWAUNEE LAKESHO 1300   54     260/  7/  9 1010.9F
SHEBOYGAN LAKESH 1300   54     260/ 10/ 13 1013.0F
PORT WASHINGTON  1300   56     270/  7/ 10 1013.9F
S MID LAKE BUOY  1250   42 41  170/  4/  6 1014.5F   0
KENOSHA   LAKESH 1300   53     260/  9/ 14 1014.2F
$$

TC  - TEMPERATURE IN CELSIUS
VSB - VISIBILITY IN STATUTE MILES
WCI - WIND CHILL INDEX
HX  - HEAT INDEX





USA.gov is the U.S. government's official web portal to all federal, state and local government web resources and services.